This is the latest recevied weather packets stored in our database for station/object WD7OO. If no packets are shown the sender has not sent any weather packets the latest 10 day(s).
| Time | Temp. | Humidity | Pressure | Rain* | Wind** | Luminosity | Snow |
|---|---|---|---|---|---|---|---|
| 1788094904 | 18.89° C | 99% | 1019.3 hPa | 0 mm | - | 11 W/m² | - |
| 1788094603 | 18.89° C | 99% | 1019 hPa | 0 mm | - | 10 W/m² | - |
| 1788094298 | 18.89° C | 99% | 1018.9 hPa | 0 mm | - | 12 W/m² | - |
| 1788093996 | 18.89° C | 99% | 1018.9 hPa | 0 mm | - | 12 W/m² | - |
| 1788093692 | 18.89° C | 99% | 1018.9 hPa | 0 mm | - | 11 W/m² | - |
| 1788093389 | 18.89° C | 99% | 1018.9 hPa | 0 mm | - | 15 W/m² | - |
| 1788093084 | 18.89° C | 99% | 1018.9 hPa | 0 mm | - | 19 W/m² | - |
| 1788092781 | 18.89° C | 99% | 1018.8 hPa | 0 mm | - | 17 W/m² | - |
| 1788092476 | 18.33° C | 99% | 1018.6 hPa | 0 mm | - | 21 W/m² | - |
| 1788092173 | 18.89° C | 99% | 1018.6 hPa | 0 mm | - | 27 W/m² | - |
| 1788091871 | 18.33° C | 99% | 1018.4 hPa | 0 mm | - | 28 W/m² | - |
| 1788091567 | 18.33° C | 99% | 1018.2 hPa | 0 mm | - | 26 W/m² | - |
| 1788091263 | 18.33° C | 99% | 1018.3 hPa | 0 mm | - | 25 W/m² | - |
| 1788090959 | 18.33° C | 99% | 1018.1 hPa | 0 mm | - | 24 W/m² | - |
| 1788090657 | 18.33° C | 99% | 1018.2 hPa | 0 mm | - | 21 W/m² | - |
| 1788090351 | 18.33° C | 99% | 1017.8 hPa | 0 mm | - | 17 W/m² | - |
| 1788090050 | 17.78° C | 99% | 1018 hPa | 0 mm | - | 13 W/m² | - |
| 1788089745 | 17.78° C | 99% | 1017.8 hPa | 0 mm | - | 11 W/m² | - |
| 1788089441 | 17.78° C | 99% | 1017.8 hPa | 0 mm | - | 8 W/m² | - |
| 1788089137 | 17.78° C | 99% | 1017.7 hPa | 0 mm | - | 6 W/m² | - |
| 1788088833 | 17.78° C | 99% | 1017.8 hPa | 0 mm | - | 3 W/m² | - |
| 1788088528 | 17.78° C | 99% | 1017.5 hPa | 0 mm | - | 2 W/m² | - |
| 1788088225 | 17.78° C | 99% | 1017.8 hPa | 0 mm | - | 0 W/m² | - |
| 1788087924 | 17.78° C | 99% | 1017.6 hPa | 0 mm | - | 0 W/m² | - |
| 1788087619 | 17.78° C | 99% | 1017.8 hPa | 0 mm | - | 0 W/m² | - |
* Rain latest hour (hover to see other rain measurements)
** Current wind speed in m/s (hover to see current wind gust speed)